Weather History for Ocala, FL

Change the Weather History Date:

Friday, August 2, 2013

  Actual Average Record
Temperature  
Mean Temperature 81 °F -  
Max Temperature 91 °F 88 °F 98 °F (1999)
Min Temperature 71 °F 70 °F 69 °F (1997)
Cooling Degree Days 16    
Growing Degree Days 31 (Base 50)    
Moisture  
Dew Point 69 °F    
Average Humidity 76    
Maximum Humidity 88    
Minimum Humidity 52    
Precipitation  
Precipitation 0.07 in - - ()
Sea Level Pressure  
Sea Level Pressure 30.01 in    
Wind  
Wind Speed 2 mph (NW)    
Max Wind Speed 12 mph    
Max Gust Speed -    
Visibility 10 miles    
Events Rain    
Averages and records for this station are not official NWS values.
T = Trace of Precipitation, MM = Missing Value Source: NWS Daily Summary

Daily Weather History Graph

Daily Weather History Graph

Search for Another Location

Airport:

Trip Planner

Search our weather history database for the weather conditions in past years. The results will help you decide how hot, cold, wet, or windy it might be!

Date:

Astronomy

Aug. 02, 2013 Rise Set
Actual Time 6:50 AM EDT 8:19 PM EDT
Civil Twilight 6:24 AM EDT 8:45 PM EDT
Nautical Twilight 5:53 AM EDT 9:15 PM EDT
Astronomical Twilight 5:21 AM EDT 9:47 PM EDT
Moon 3:13 AM EDT (8/2) 5:13 PM EDT (8/2)
Length of Visible Light 14h 20m
Length of Day
13h 29m
Waning Crescent, 16% of the Moon is Illuminated
Aug 2
Waning Crescent
Aug 6
New
Aug 14
First Quarter
Aug 20
Full
Aug 28
Last Quarter

Hourly Weather History & Observations

Time (EDT) Temp. Heat Index Dew Point Humidity Pressure Visibility Wind Dir Wind Speed Gust Speed Precip Events Conditions
12:15 AM 73.4 °F - 68.0 °F 83% 30.01 in 10.0 mi Calm Calm - N/A   Clear
12:35 AM 73.4 °F - 68.0 °F 83% 30.00 in 10.0 mi Calm Calm - N/A   Clear
12:55 AM 73.4 °F - 68.0 °F 83% 30.00 in 10.0 mi South 3.5 mph - N/A   Clear
1:15 AM 73.4 °F - 68.0 °F 83% 30.00 in 10.0 mi Calm Calm - N/A   Clear
1:35 AM 73.4 °F - 68.0 °F 83% 30.00 in 10.0 mi Calm Calm - N/A   Clear
1:55 AM 73.4 °F - 66.2 °F 78% 30.01 in 10.0 mi North 3.5 mph - N/A   Clear
2:15 AM 73.4 °F - 68.0 °F 83% 30.00 in 10.0 mi Calm Calm - N/A   Scattered Clouds
2:35 AM 73.4 °F - 66.2 °F 78% 30.00 in 10.0 mi Calm Calm - N/A   Clear
2:55 AM 73.4 °F - 66.2 °F 78% 29.99 in 10.0 mi Calm Calm - N/A   Clear
3:15 AM 71.6 °F - 66.2 °F 83% 29.99 in 10.0 mi Calm Calm - N/A   Clear
3:35 AM 71.6 °F - 66.2 °F 83% 29.98 in 10.0 mi Calm Calm - N/A   Scattered Clouds
3:55 AM 71.6 °F - 66.2 °F 83% 29.97 in 10.0 mi SSE 3.5 mph - N/A   Mostly Cloudy
4:15 AM 73.4 °F - 66.2 °F 78% 29.97 in 10.0 mi Calm Calm - N/A   Partly Cloudy
4:35 AM 73.4 °F - 66.2 °F 78% 29.97 in 10.0 mi Calm Calm - N/A   Clear
4:55 AM 71.6 °F - 66.2 °F 83% 29.97 in 10.0 mi Calm Calm - N/A   Clear
5:15 AM 71.6 °F - 66.2 °F 83% 29.97 in 10.0 mi Calm Calm - N/A   Clear
5:35 AM 71.6 °F - 66.2 °F 83% 29.97 in 10.0 mi Calm Calm - N/A   Clear
5:55 AM 71.6 °F - 66.2 °F 83% 29.97 in 10.0 mi Calm Calm - N/A   Clear
6:15 AM 71.6 °F - 66.2 °F 83% 29.98 in 10.0 mi Calm Calm - N/A   Clear
6:35 AM 71.6 °F - 66.2 °F 83% 29.98 in 10.0 mi Calm Calm - N/A   Clear
6:50 AM 71.6 °F - 66.2 °F 83% 29.99 in 10.0 mi Calm Calm - N/A   Clear
7:50 AM 71.6 °F - 68.0 °F 88% 30.00 in 10.0 mi Calm Calm - N/A   Clear
8:50 AM 78.8 °F - 69.8 °F 74% 30.02 in 10.0 mi Calm Calm - N/A   Clear
9:50 AM 80.6 °F 84.6 °F 71.6 °F 74% 30.03 in 10.0 mi Calm Calm - N/A   Clear
10:50 AM 84.2 °F 89.6 °F 71.6 °F 66% 30.05 in 10.0 mi South 5.8 mph - N/A   Scattered Clouds
11:50 AM 86.0 °F 91.8 °F 71.6 °F 62% 30.05 in 10.0 mi WSW 4.6 mph - N/A   Scattered Clouds
12:50 PM 87.8 °F 93.8 °F 71.6 °F 58% 30.04 in 10.0 mi WSW 3.5 mph - N/A   Scattered Clouds
1:50 PM 89.6 °F 96.2 °F 71.6 °F 55% 30.02 in 10.0 mi West 6.9 mph - N/A   Mostly Cloudy
2:50 PM 89.6 °F 96.2 °F 71.6 °F 55% 30.01 in 10.0 mi WNW 6.9 mph - N/A   Scattered Clouds
3:50 PM 89.6 °F 94.7 °F 69.8 °F 52% 29.99 in 10.0 mi West 6.9 mph - N/A   Scattered Clouds
4:50 PM 91.4 °F 98.4 °F 71.6 °F 52% 29.97 in 10.0 mi WNW 6.9 mph - N/A   Scattered Clouds
5:50 PM 86.0 °F 91.8 °F 71.6 °F 62% 29.98 in 5.0 mi North 11.5 mph - N/A Rain Rain
6:50 PM 80.6 °F 84.6 °F 71.6 °F 74% 29.99 in 10.0 mi North 9.2 mph - N/A   Mostly Cloudy
7:55 PM 80.6 °F 84.6 °F 71.6 °F 74% 30.00 in 10.0 mi NNE 4.6 mph - N/A   Overcast
8:15 PM 78.8 °F - 69.8 °F 74% 30.02 in 10.0 mi Calm Calm - N/A   Overcast
8:35 PM 80.6 °F 84.6 °F 71.6 °F 74% 30.02 in 10.0 mi Calm Calm - N/A   Overcast
8:55 PM 80.6 °F 83.9 °F 69.8 °F 70% 30.04 in 10.0 mi Calm Calm - N/A   Overcast
9:15 PM 80.6 °F 83.9 °F 69.8 °F 70% 30.04 in 10.0 mi NNE 4.6 mph - N/A   Mostly Cloudy
9:35 PM 78.8 °F - 69.8 °F 74% 30.05 in 10.0 mi North 5.8 mph - N/A   Mostly Cloudy
9:55 PM 78.8 °F - 69.8 °F 74% 30.05 in 10.0 mi North 6.9 mph - N/A   Mostly Cloudy
10:15 PM 77.0 °F - 69.8 °F 78% 30.05 in 10.0 mi NW 3.5 mph - N/A   Overcast
10:35 PM 77.0 °F - 69.8 °F 78% 30.04 in 10.0 mi Calm Calm - N/A   Partly Cloudy
10:55 PM 75.2 °F - 69.8 °F 83% 30.05 in 10.0 mi Calm Calm - N/A   Clear
11:15 PM 75.2 °F - 69.8 °F 83% 30.05 in 10.0 mi Calm Calm - N/A   Clear
11:35 PM 75.2 °F - 69.8 °F 83% 30.05 in 10.0 mi Calm Calm - N/A   Clear
11:55 PM 75.2 °F - 69.8 °F 83% 30.05 in 10.0 mi Calm Calm - N/A   Clear